CHINASAT 2D (ZX 2D) (43920 NORAD) Tracking and Keplerian Element Data

This shows tracking and keplerian element data for the satellite.

Feedback or suggestion? Click here.




ElementValue
Catalog43920
NameCHINASAT 2D (ZX 2D)
Epoch Orbit147
Epoch Day143.24922584
Epoch Year2019
RAAN282.7482
Inclination0.0067
Eccentricity0.0002419
Argument of Perigee123.4183
Mean Anonmoly54.1333
Mean Motion1.00270429
Decay Rate-3.45E-06
L11 43920U 19001A 19143.24922584 -.00000345 00000-0 00000+0 0 9995
L22 43920 0.0067 282.7482 0002419 123.4183 54.1333 1.00270429 1470

Live tracking and technical data element details for CHINASAT 2D (ZX 2D) (NORAD 43920). CHINASAT 2D (ZX 2D) can be tracked NOW for your location showing map with azimuth and elevation plus other details from your city location.

Track the satellite on the map from your city or location and see movement details for azimuth, elevation, latitude, longitude, range, height, and movement on the map or in text.







IsCatalogInMostPopularTable: catalog: 43920, numindb: 72
Update: records affected: 1



GetName: 43920 CHINASAT 2D (ZX 2D)

Hit Count: updated at: Thu, 23 May 2019 15:49:28 GMT